User: anonymous   Login
Location: Unspecified
(0.0000°N, 0.0000°E)
Time: 18:13:02
(UTC+00:00)
Language:

STARLINK-4777 - Orbit

View from above orbital plane
View from above orbital plane
View from above satellite
View from above satellite

Ground track
Ground track

The orbit is defined by the following mean orbital elements,

1 53847U          26145.46897969 +.00000000 +00000-0 -35060-4 0 00005
2 53847  53.2151 309.3758 0001465 101.0543 259.0614 15.08846071    08
Epoch (UTC): 25 May 2026 11:15:19
Eccentricity: 0.0001465
inclination: 53.2151°
perigee height: 539 km
apogee height: 541 km
right ascension of ascending node: 309.3758°
argument of perigee: 101.0543°
revolutions per day: 15.08846071
mean anomaly at epoch: 259.0614°

The dashed part of the orbit path shows where the satellite is in the earth's shadow,  

DLR